Location: Newark
(35.2672°N, 80.7344°W)
Time: 07:03:57
(UTC+00:00)

Vanguard 1 - Pass Details

Date: 27 January 2020
Orbit: 650 x 3833 km, 34.2° (Epoch: 20 February)

Event Time Altitude Azimuth Distance (km) Brightness Sun altitude
Rises 00:33:04 0° 275° (W) 2,973 13.9 -22.1°
Reaches altitude 10° 00:35:07 10° 273° (W) 2,127 12.9 -22.6°
Maximum altitude 00:39:46 72° 189° (S) 872 9.7 -23.5°
Enters shadow 00:41:26 47° 120° (ESE) 1,185 10.1 -23.8°
